Regional Weather Roundup
Issued by NWS Kansas City/Pleasant Hill, MO

Home | Current Version | Previous Version | Graphics & Text | Print | Product List | Glossary Off
Versions: 1 2 3 4 5 6 7 8 9 10 11 12 13 14 15 16 17 18 19 20 21 22 23 24 25 26 27 28 29 30 31 32 33 34 35 36 37 38 39 40 41 42 43 44 45 46 47 48 49 50

000
ASUS43 KEAX 192211
RWREAX

WEATHER ROUNDUP FOR EASTERN KANSAS AND NORTHWEST MISSOURI
NATIONAL WEATHER SERVICE KANSAS CITY/PLEASANT HILL MO
500 PM CDT FRI SEP 19 2014

KSZ040-057-103>105-MOZ028-029-037-043-192300-
...KANSAS CITY METROPOLITAN AREA...

CITY           SKY/WX    TMP DP  RH WIND       PRES   REMARKS
K.C. INTL      MOSUNNY   77  69  76 S13       29.95F
K.C. DOWNTOWN  MOSUNNY   79  68  69 S13       29.94F
LEES SUMMIT    PTSUNNY   78  68  71 S8        29.97F
OLATHE - IXD   MOSUNNY   80  69  69 S12       29.96S
OLATHE - OJC   MOSUNNY   79  69  71 SE12      29.95F
LAWRENCE       MOSUNNY   81  68  64 S13       29.93F

$$

MOZ001>008-011>017-020>025-030>033-038>040-044>046-053-054-192300-
...NORTHERN AND CENTRAL MISSOURI...

CITY           SKY/WX    TMP DP  RH WIND       PRES   REMARKS
ST. JOSEPH     SUNNY     77  68  73 S13       29.92F
MOSBY          CLOUDY    75  68  78 SE8       29.95F
WHITEMAN AFB   MOSUNNY   77  67  69 S8        29.97F
CLINTON        MOSUNNY   79  68  69 CALM      29.98F
SEDALIA        MOSUNNY   78  64  61 S9        29.99F
WARSAW         NOT AVBL
MARSHALL       MOSUNNY   81  66  61 S8        29.98F
CHILLICOTHE      N/A     77  66  68 S9G17     29.96F
MOBERLY        SUNNY     79  59  50 S8        30.00F
KIRKSVILLE     SUNNY     76  61  59 S14       29.98F

$$

MOZ041-047>049-056>058-063>065-088>090-097-192300-
...EASTERN AND SOUTHERN MISSOURI...

CITY           SKY/WX    TMP DP  RH WIND       PRES   REMARKS
ST. LOUIS INTL MOSUNNY   79  58  48 SE9       30.01F
SPIRIT OF STL  MOSUNNY   78  58  49 VRB5      30.00F
COLUMBIA       SUNNY     77  62  59 S9        30.00F
JEFFERSON CITY SUNNY     79  60  52 S7        29.99F
MEXICO         SUNNY     81  63  54 SW8       30.00F
HANNIBAL       SUNNY     77  54  44 SE9       30.00F HAZE
ROLLA          HAZE      76  59  55 S8        30.01S VSB 1/4
LEBANON        MOSUNNY   79  61  53 S7        30.03S
OSAGE BEACH    MOSUNNY   79  63  57 S6        30.00F
SPRINGFIELD    MOSUNNY   78  64  61 SE8       30.01F
BRANSON        MOSUNNY   82  64  54 SE7       30.02F
NEVADA         PTSUNNY   79  66  65 SE7       29.99S
JOPLIN         PTSUNNY   79  67  66 S7        29.99F
WEST PLAINS    MOSUNNY   77  62  59 S7        30.04S

$$

IAZ060-094-KSZ022-034>040-054-083-096-NEZ052-066-093-192300-
...KANSAS...SOUTHEAST NEBRASKA AND IOWA...

CITY           SKY/WX    TMP DP  RH WIND       PRES   REMARKS
TOPEKA         SUNNY     82  70  66 S12       29.92F
MANHATTAN      MOSUNNY   87  70  56 S13       29.88F HX  92
EMPORIA        SUNNY     77  68  73 S15       29.95F
CHANUTE        CLOUDY    76  69  79 S8        29.98F
WICHITA        MOSUNNY   90  64  42 S17       29.91F HX  91
OMAHA          MOSUNNY   85  68  56 S20       29.79F
LINCOLN        SUNNY     89  63  41 SW21G29   29.80F HX  90
FALLS CITY     SUNNY     82  69  64 S16       29.87F
LAMONI         SUNNY     76  66  71 S13G22    29.92F
DES MOINES     PTSUNNY   80  66  62 S18G29    29.86F

$$




USA.gov is the U.S. government's official web portal to all federal, state and local government web resources and services.